STARLINK-3885, 52463

Orbit data source: Space-Track

STARLINK-3885, 52463 is a payload satellite owned by SpaceX/Seattle (US) in LEO that was launched on Fri, 06 May 2022 UTC via an FALCON 9 launch vehicle from the Air Force Eastern Test Range (AFETR). Payload-class satellites include a variety of spacecraft equipped with specific instruments for various scientific and technological missions. These include communications satellites like Starlink; space stations such as the ISS; scientific satellites like the Hubble; Earth observation satellites from companies like Planet Labs, Umbra, and HawkEye 360; GPS; miniature CubeSats for education and research; and military/defense satellites.

Loading next visibility...
Identifier
52463, 2022-049N
Orbit
LEO
Country
Flag of USUS
Related business
Manufacturer
SpaceX/Seattle
Mission
Operational Commercial Communications
Bus & Motor
STARLINK, Unknown motor
Mass
297 kg wet, ~220 kg dry
Launch date (UTC)
2022-05-06 (4 years ago)
Launch vehicle
FALCON 9
Launch site
Air Force Eastern Test Range (AFETR)
Object type
Payload
Rocket body
Debris
Shape & HBR
Box + 1 Pan, 10.1 m
Radar Cross Section
13.562 m², Large (>1 m²)

Expand to show TLE details & history
Last TLE update: 1 day ago

TLE from 1 day ago
0 STARLINK-3885
1 52463U 22049N   25346.49768477 -.00001551  00000-0 -79436-4 0  9996
2 52463  53.2161  80.5396 0001212  89.3746 270.7385 15.08826763199225
Epoch: 2025-12-12T11:56Z
TLE epoch observation values (Epoch: 2025-12-12T11:56:39.964Z)
Latitude
-0°
Longitude
179.93463°
Altitude
540.67 km
Speed
7.593 km/s
True Right ascension
05h 22m 09s
True Declination
0° 00' 00"
Sunlit
Object was in full shadow at epoch
Visualization orbit readout
Latitude
Unknown
Longitude
Unknown
Altitude
Unknown
Speed
Unknown
Apparent Right ascension
Unknown
Apparent Declination
Unknown
Sunlit
N/A
Visualization observer readout
Local Sidereal Time
12:54:00
Azimuth
Unknown
Elevation
Unknown
Doppler factor
Unknown
Orbital elements
Apogee altitude
540.867 km
Perigee altitude
539.191 km
Semi-major axis
6,918.166 km
Eccentricity
0.00012
Inclination
53.2161°
RAAN
80.5396°
Arg. of periapsis
89.3746°
True anomaly
270.72461°
Mean anomaly
270.7385°
Eccentric anomaly
270.73156°
Mean motion
3.77187 °/min
Orbital period
95.44 mins
BSTAR
-0.000079436
Loading maneuver chart data...
Computing Atmospheric mass density...
Loading historical data...
Loading historical data...
Loading historical data...
Loading historical data...
Loading historical data...
Loading historical data...
Loading historical data...

Documentation

Showing up to 5 results
|